GW4199 Weather Reports


time (UTC)temp
C
wind
direction
speed
KPH
gust
KPH
rain 1hr
cm
rain 24hr
cm
rain mn
cm
humidity
%
barometer
mb
20260507051506 22 255 12.9 17.7 0.00 0.00 0.00 90 1013.7
20260507051001 22 264 12.9 17.7 0.00 0.00 0.00 90 1013.9
20260507050458 22 245 12.9 17.7 0.00 0.00 0.00 90 1013.9
20260507050005 22 265 11.3 19.3 0.00 0.00 0.00 90 1013.9
20260507045504 22 253 14.5 22.5 0.00 0.00 0.00 89 1013.9
20260507045002 22 245 14.5 24.1 0.00 0.00 0.00 89 1013.8
20260507044503 22 245 19.3 24.1 0.00 0.00 0.00 89 1013.8
20260507043959 22 221 17.7 24.1 0.00 0.00 0.00 89 1013.6
20260507043500 22 242 17.7 25.7 0.00 0.00 0.00 89 1013.7
20260507043000 22 229 17.7 25.7 0.00 0.00 0.00 89 1013.7
20260507042458 22 245 19.3 30.6 0.00 0.00 0.00 88 1013.7
20260507041958 22 232 22.5 30.6 0.00 0.00 0.00 88 1013.7
20260507041458 22 235 22.5 35.4 0.00 0.00 0.00 88 1013.7
20260507041000 22 232 24.1 35.4 0.00 0.00 0.00 88 1013.7
20260507040459 22 233 22.5 32.2 0.00 0.00 0.00 88 1013.8
20260507040002 22 229 22.5 32.2 0.00 0.00 0.00 88 1013.6
20260507035458 22 232 27.4 32.2 0.00 0.00 0.00 88 1013.3
20260507034958 22 234 22.5 32.2 0.00 0.00 0.00 88 1013.5
20260507034502 22 234 25.7 35.4 0.00 0.00 0.00 88 1013.3
20260507034002 22 216 25.7 35.4 0.00 0.00 0.00 88 1013.1
20260507033504 22 210 27.4 35.4 0.00 0.00 0.00 88 1013.3
20260507033004 22 215 27.4 33.8 0.00 0.00 0.00 89 1013.3
20260507032503 22 221 25.7 33.8 0.00 0.00 0.00 89 1013.2
20260507031958 22 214 24.1 27.4 0.00 0.00 0.00 90 1013.1
20260507031458 22 210 20.9 27.4 0.00 0.00 0.00 90 1013.2
20260507030959 22 215 20.9 29.0 0.00 0.00 0.00 90 1013.2
20260507030501 22 214 22.5 33.8 0.00 0.00 0.00 90 1013.2
20260507030002 22 224 22.5 33.8 0.00 0.00 0.00 90 1013.5
20260507025458 22 208 24.1 30.6 0.00 0.00 0.00 90 1013.5
20260507024959 22 224 19.3 27.4 0.00 0.00 0.00 90 1013.5
20260507024502 22 236 20.9 29.0 0.00 0.00 0.00 90 1013.5
20260507024001 22 208 22.5 29.0 0.00 0.00 0.00 90 1013.0
20260507023501 22 202 19.3 33.8 0.00 0.00 0.00 90 1013.0
20260507023004 22 177 20.9 33.8 0.00 0.00 0.00 90 1013.0
20260507022502 22 212 20.9 27.4 0.00 0.00 0.00 90 1013.3
20260507022005 22 217 20.9 27.4 0.00 0.00 0.00 90 1013.4
20260507021502 22 214 20.9 27.4 0.00 0.00 0.00 90 1013.4
20260507021002 22 221 19.3 25.7 0.00 0.00 0.00 90 1013.7
20260507020500 22 235 16.1 25.7 0.00 0.00 0.00 90 1013.8
20260507015959 22 218 17.7 22.5 0.00 0.00 0.00 90 1013.6
20260507015459 22 229 14.5 22.5 0.00 0.00 0.00 91 1013.7
20260507014958 22 235 16.1 25.7 0.00 0.00 0.00 91 1013.7
20260507014504 22 226 16.1 27.4 0.00 0.00 0.00 91 1013.9
20260507013959 22 206 19.3 27.4 0.00 0.00 0.00 91 1013.7
20260507013458 22 221 19.3 27.4 0.00 0.00 0.00 91 1013.6
20260507013003 22 212 19.3 25.7 0.00 0.00 0.00 91 1013.7
20260507012502 22 225 17.7 24.1 0.00 0.00 0.00 91 1013.8
20260507012002 22 230 17.7 24.1 0.00 0.00 0.00 91 1013.9
20260507011508 22 223 19.3 24.1 0.00 0.00 0.00 91 1014.0
20260507011002 22 214 16.1 25.7 0.00 0.00 0.00 91 1014.1
20260507010503 22 216 19.3 27.4 0.00 0.00 0.00 91 1014.1
20260507010006 22 212 19.3 27.4 0.00 0.00 0.00 91 1014.0
20260507005504 22 223 17.7 24.1 0.00 0.00 0.00 91 1014.0
20260507005002 22 213 17.7 22.5 0.00 0.00 0.00 91 1013.9
20260507004459 22 224 17.7 24.1 0.00 0.00 0.00 91 1014.0
20260507003958 22 233 19.3 24.1 0.00 0.00 0.00 90 1014.0
20260507003459 22 229 17.7 24.1 0.00 0.00 0.00 90 1013.9
20260507003002 22 213 19.3 24.1 0.00 0.00 0.00 90 1013.9
20260507002458 22 220 17.7 24.1 0.00 0.00 0.00 90 1013.8
20260507002002 22 232 19.3 25.7 0.00 0.00 0.00 90 1013.8
20260507001503 22 217 19.3 25.7 0.00 0.00 0.00 90 1013.8
20260507001002 22 217 17.7 27.4 0.00 0.00 0.00 90 1013.9
20260507000502 22 218 17.7 27.4 0.00 0.00 0.00 90 1014.0
20260507000005 22 221 20.9 24.1 0.00 0.00 0.00 90 1014.0
20260506235503 22 221 19.3 24.1 0.00 0.00 0.00 90 1014.0
20260506235002 22 225 19.3 24.1 0.00 0.00 0.00 89 1014.0
20260506234503 22 231 20.9 25.7 0.00 0.00 0.00 89 1014.1
20260506234002 22 224 19.3 25.7 0.00 0.00 0.00 89 1014.0
20260506233503 22 231 17.7 25.7 0.00 0.00 0.00 89 1013.9
20260506233006 22 229 19.3 25.7 0.00 0.00 0.00 89 1013.9
20260506232458 22 236 17.7 25.7 0.00 0.00 0.00 88 1014.0
20260506231958 22 224 19.3 22.5 0.00 0.00 0.00 88 1014.2
20260506231522 22 230 17.7 20.9 0.00 0.00 0.00 88 1014.2
20260506231003 22 248 12.9 20.9 0.00 0.00 0.00 88 1014.4
20260506230501 22 240 16.1 20.9 0.00 0.00 0.00 88 1014.4
20260506230003 22 224 12.9 24.1 0.00 0.00 0.00 88 1014.2
20260506225503 22 242 16.1 24.1 0.00 0.00 0.00 87 1014.2
20260506225003 22 226 16.1 24.1 0.00 0.00 0.00 87 1014.2
20260506224504 22 240 16.1 30.6 0.00 0.00 0.00 87 1014.1
20260506224002 22 225 22.5 32.2 0.00 0.00 0.00 87 1014.0
20260506223502 22 228 25.7 32.2 0.00 0.00 0.00 86 1014.0
20260506223005 22 215 24.1 30.6 0.00 0.00 0.00 86 1014.0
20260506222502 22 226 24.1 30.6 0.00 0.00 0.00 85 1014.0
20260506222004 22 209 20.9 33.8 0.00 0.00 0.00 86 1014.0
20260506221508 22 209 25.7 33.8 0.00 0.00 0.00 85 1013.9
20260506220959 23 212 24.1 33.8 0.00 0.00 0.00 86 1013.8
20260506220458 22 226 27.4 33.8 0.00 0.00 0.00 85 1013.8
20260506220003 22 214 25.7 35.4 0.00 0.00 0.00 85 1013.9
20260506215501 22 225 25.7 35.4 0.00 0.00 0.00 85 1014.0
20260506215006 22 227 22.5 33.8 0.00 0.00 0.00 85 1014.0
20260506214503 22 230 27.4 33.8 0.00 0.00 0.00 85 1014.2
20260506214005 23 224 25.7 32.2 0.00 0.00 0.00 85 1014.2
20260506213502 23 229 22.5 30.6 0.00 0.00 0.00 84 1014.2
20260506213004 23 216 20.9 33.8 0.00 0.00 0.00 85 1014.1
20260506212503 23 233 25.7 35.4 0.00 0.00 0.00 84 1014.3
20260506212006 23 211 25.7 35.4 0.00 0.00 0.00 84 1014.3
20260506211509 22 210 25.7 33.8 0.00 0.00 0.00 84 1014.3
20260506211005 22 210 25.7 33.8 0.00 0.00 0.00 84 1014.2
20260506210504 22 207 20.9 33.8 0.00 0.00 0.00 85 1014.3
20260506210009 22 223 27.4 33.8 0.00 0.00 0.00 83 1014.2
20260506205506 22 229 25.7 37.0 0.00 0.00 0.00 82 1014.2
20260506205002 23 224 24.1 37.0 0.00 0.00 0.00 82 1014.2
20260506204506 23 221 25.7 40.2 0.00 0.00 0.00 83 1014.3
20260506204002 23 234 30.6 40.2 0.00 0.00 0.00 82 1014.2
20260506203502 23 240 25.7 37.0 0.00 0.00 0.00 82 1014.4
20260506203003 23 219 27.4 37.0 0.00 0.00 0.00 82 1014.5
20260506202503 23 228 27.4 35.4 0.00 0.00 0.00 83 1014.5
20260506202004 23 223 24.1 35.4 0.00 0.00 0.00 81 1014.6
20260506201503 23 203 27.4 35.4 0.00 0.00 0.00 81 1014.6
20260506201003 23 213 25.7 37.0 0.00 0.00 0.00 82 1014.5
20260506200504 22 207 27.4 37.0 0.00 0.00 0.00 82 1014.6
20260506200007 22 221 30.6 40.2 0.00 0.00 0.00 81 1014.7
20260506195503 22 214 29.0 43.5 0.00 0.00 0.00 82 1014.7
20260506195004 22 222 30.6 43.5 0.00 0.00 0.00 81 1014.7
20260506194515 23 209 33.8 45.1 0.00 0.00 0.00 81 1014.7
20260506194004 23 212 30.6 45.1 0.00 0.00 0.00 79 1014.7
20260506193505 23 212 30.6 41.8 0.00 0.00 0.00 79 1014.7
20260506193004 23 227 29.0 37.0 0.00 0.00 0.00 80 1015.0
20260506192502 23 220 29.0 37.0 0.00 0.00 0.00 80 1015.1
20260506192004 23 219 25.7 41.8 0.00 0.00 0.00 82 1015.2
20260506191503 23 236 30.6 41.8 0.00 0.00 0.00 80 1015.1
20260506191003 23 214 30.6 38.6 0.00 0.00 0.00 80 1015.3
20260506190502 23 223 29.0 35.4 0.00 0.00 0.00 79 1015.4
20260506190006 23 230 27.4 37.0 0.00 0.00 0.00 79 1015.6
20260506185504 23 236 25.7 37.0 0.00 0.00 0.00 80 1015.6
20260506185003 23 226 32.2 37.0 0.00 0.00 0.00 79 1015.7
20260506184508 23 223 27.4 40.2 0.00 0.00 0.00 81 1015.8
20260506184006 23 227 30.6 40.2 0.00 0.00 0.00 79 1015.9
20260506183504 23 244 25.7 35.4 0.00 0.00 0.00 81 1015.9
20260506183026 23 227 27.4 35.4 0.00 0.00 0.00 80 1015.9
20260506182504 23 240 25.7 33.8 0.00 0.00 0.00 81 1015.9
20260506182006 23 234 27.4 37.0 0.00 0.00 0.00 81 1015.8
20260506181504 23 219 27.4 37.0 0.00 0.00 0.00 81 1015.9
20260506181002 23 231 27.4 33.8 0.00 0.00 0.00 81 1016.0
20260506180504 23 219 22.5 33.8 0.00 0.00 0.00 81 1016.0
20260506180010 23 236 27.4 33.8 0.00 0.00 0.00 81 1016.1
20260506175504 22 231 25.7 32.2 0.00 0.00 0.00 81 1016.1
20260506175004 22 238 25.7 35.4 0.00 0.00 0.00 81 1016.2
20260506174510 22 243 24.1 35.4 0.00 0.00 0.00 82 1016.4
20260506174004 22 231 27.4 35.4 0.00 0.00 0.00 81 1016.4
20260506173504 23 235 24.1 40.2 0.00 0.00 0.00 80 1016.4
20260506173008 22 246 27.4 40.2 0.00 0.00 0.00 79 1016.2
20260506172504 23 218 29.0 37.0 0.00 0.00 0.00 80 1016.2
20260506172005 23 221 30.6 41.8 0.00 0.00 0.00 79 1016.4
20260506171525 23 257 27.4 41.8 0.00 0.00 0.00 79 1016.6
20260506171008 23 234 29.0 40.2 0.00 0.00 0.00 79 1016.4
20260506170510 23 241 27.4 40.2 0.00 0.00 0.00 80 1016.6
20260506170023 23 246 30.6 40.2 0.00 0.00 0.00 77 1016.6
20260506165505 23 260 27.4 37.0 0.00 0.00 0.00 78 1016.6
20260506165003 23 232 29.0 37.0 0.00 0.00 0.00 79 1016.6
20260506164506 23 250 29.0 38.6 0.00 0.00 0.00 78 1016.5
20260506164004 23 242 24.1 38.6 0.00 0.00 0.00 80 1016.6
20260506163503 23 222 29.0 37.0 0.00 0.00 0.00 77 1016.6
20260506163008 23 232 25.7 33.8 0.00 0.00 0.00 79 1016.7
20260506162503 23 224 24.1 33.8 0.00 0.00 0.00 80 1016.7
20260506162005 22 235 22.5 30.6 0.00 0.00 0.00 81 1016.8
20260506161510 22 218 24.1 33.8 0.00 0.00 0.00 81 1017.0
20260506161006 22 219 20.9 33.8 0.00 0.00 0.00 82 1017.0
20260506160504 22 221 19.3 30.6 0.00 0.00 0.00 82 1017.0
20260506160017 22 219 20.9 30.6 0.00 0.00 0.00 81 1017.0
20260506155504 22 232 22.5 30.6 0.00 0.00 0.00 81 1017.1
20260506155009 22 219 20.9 30.6 0.00 0.00 0.00 81 1017.1
20260506154529 22 221 22.5 30.6 0.00 0.00 0.00 80 1017.1
20260506154008 22 229 22.5 30.6 0.00 0.00 0.00 80 1017.1
20260506153503 22 229 20.9 30.6 0.00 0.00 0.00 78 1017.1
20260506153007 22 231 19.3 27.4 0.00 0.00 0.00 81 1017.1
20260506152504 22 255 20.9 29.0 0.00 0.00 0.00 80 1017.2
20260506152003 22 228 19.3 29.0 0.00 0.00 0.00 80 1017.2
20260506151511 22 221 20.9 29.0 0.00 0.00 0.00 80 1017.1
20260506151004 22 238 19.3 29.0 0.00 0.00 0.00 80 1017.2
20260506150505 22 224 22.5 29.0 0.00 0.00 0.00 81 1017.1
20260506150013 22 225 22.5 30.6 0.00 0.00 0.00 80 1017.1
20260506145506 22 226 22.5 30.6 0.00 0.00 0.00 79 1016.9
20260506145006 22 243 22.5 27.4 0.00 0.00 0.00 80 1016.8
20260506144519 22 222 20.9 29.0 0.00 0.00 0.00 81 1016.8
20260506144005 22 224 20.9 29.0 0.00 0.00 0.00 81 1016.7
20260506143505 22 238 20.9 30.6 0.00 0.00 0.00 81 1016.7
20260506143030 22 226 22.5 32.2 0.00 0.00 0.00 80 1016.7
20260506142508 22 228 20.9 32.2 0.00 0.00 0.00 79 1016.7
20260506142003 22 233 19.3 30.6 0.00 0.00 0.00 80 1016.6
20260506141509 22 240 20.9 30.6 0.00 0.00 0.00 80 1016.8
20260506141006 22 257 22.5 30.6 0.00 0.00 0.00 79 1016.7
20260506140504 22 217 20.9 33.8 0.00 0.00 0.00 79 1016.7
20260506140012 22 234 25.7 33.8 0.00 0.00 0.00 79 1016.5
20260506135509 22 222 22.5 32.2 0.00 0.00 0.00 80 1016.4
20260506135007 22 242 20.9 32.2 0.00 0.00 0.00 80 1016.5
20260506134514 22 221 19.3 30.6 0.00 0.00 0.00 81 1016.4
20260506134004 22 218 20.9 29.0 0.00 0.00 0.00 81 1016.5
20260506133505 22 217 20.9 29.0 0.00 0.00 0.00 81 1016.5
20260506133019 22 231 22.5 29.0 0.00 0.00 0.00 82 1016.4
20260506132510 22 214 20.9 29.0 0.00 0.00 0.00 81 1016.3
20260506132010 22 216 20.9 29.0 0.00 0.00 0.00 81 1016.4
20260506131524 22 216 20.9 25.7 0.00 0.00 0.00 82 1016.3
20260506131010 22 236 17.7 24.1 0.00 0.00 0.00 81 1016.3
20260506130510 22 223 17.7 25.7 0.00 0.00 0.00 82 1016.3
20260506130011 21 214 19.3 25.7 0.00 0.00 0.00 82 1016.4
20260506125501 21 215 17.7 25.7 0.00 0.00 0.00 82 1016.3
20260506125007 21 214 14.5 27.4 0.00 0.00 0.00 83 1016.2
20260506124512 21 219 19.3 27.4 0.00 0.00 0.00 82 1016.1
20260506124006 21 212 20.9 24.1 0.00 0.00 0.00 82 1016.2
20260506123507 21 219 19.3 22.5 0.00 0.00 0.00 82 1016.1
20260506123023 21 218 17.7 24.1 0.00 0.00 0.00 83 1016.2
20260506122505 21 222 17.7 24.1 0.00 0.00 0.00 83 1016.3
20260506122012 21 233 16.1 20.9 0.00 0.00 0.00 83 1016.2
20260506121524 21 223 16.1 20.9 0.00 0.00 0.00 83 1016.2
20260506121007 21 219 16.1 22.5 0.00 0.00 0.00 83 1016.2
20260506120507 21 228 17.7 22.5 0.00 0.00 0.00 83 1016.0
20260506120038 21 216 16.1 19.3 0.00 0.00 0.00 83 1016.0
20260506115514 21 219 16.1 20.9 0.00 0.00 0.00 83 1016.1
20260506115009 21 209 16.1 20.9 0.00 0.00 0.00 83 1016.0
20260506114526 21 211 14.5 19.3 0.00 0.00 0.00 84 1015.9
20260506114010 21 210 14.5 17.7 0.00 0.00 0.00 83 1016.0
20260506113507 21 221 12.9 17.7 0.00 0.00 0.00 84 1015.9
20260506113025 21 212 14.5 16.1 0.00 0.00 0.00 84 1015.8
20260506112506 21 206 11.3 14.5 0.00 0.00 0.00 84 1015.7
20260506112011 20 216 9.7 12.9 0.00 0.00 0.00 85 1015.8
20260506111519 20 214 8.0 12.9 0.00 0.00 0.00 85 1015.7
20260506111010 20 207 11.3 12.9 0.00 0.00 0.00 86 1015.6
20260506110507 20 222 8.0 11.3 0.00 0.00 0.00 86 1015.5
20260506110024 20 221 8.0 11.3 0.00 0.00 0.00 86 1015.4
20260506105509 20 221 8.0 11.3 0.00 0.00 0.00 86 1015.5
20260506105009 20 211 8.0 11.3 0.00 0.00 0.00 86 1015.4
20260506104523 20 216 8.0 11.3 0.00 0.00 0.00 86 1015.5
20260506104009 20 219 8.0 11.3 0.00 0.00 0.00 86 1015.5
20260506103511 20 236 8.0 11.3 0.00 0.00 0.00 86 1015.5
20260506103026 20 231 8.0 14.5 0.00 0.00 0.00 87 1015.4
20260506102506 20 228 9.7 14.5 0.00 0.00 0.00 86 1015.2
20260506102006 20 232 9.7 12.9 0.00 0.00 0.00 86 1015.2
20260506101516 19 232 9.7 11.3 0.00 0.00 0.00 86 1015.2
20260506101007 20 225 8.0 9.7 0.00 0.00 0.00 86 1015.2
20260506100505 20 220 6.4 9.7 0.00 0.00 0.00 86 1015.1
20260506100021 19 217 6.4 9.7 0.00 0.00 0.00 87 1015.2
20260506095507 19 239 4.8 8.0 0.00 0.00 0.00 86 1015.3
20260506095010 19 228 6.4 8.0 0.00 0.00 0.00 87 1015.2
20260506094524 19 229 6.4 8.0 0.00 0.00 0.00 87 1015.1
20260506094011 19 227 4.8 6.4 0.00 0.00 0.00 87 1015.2
20260506093511 19 233 4.8 8.0 0.00 0.00 0.00 87 1015.2
20260506093028 20 235 6.4 8.0 0.00 0.00 0.00 87 1015.2
20260506092507 19 229 6.4 8.0 0.00 0.00 0.00 87 1015.1
20260506092011 19 236 6.4 8.0 0.00 0.00 0.00 87 1015.3
20260506091531 20 247 6.4 8.0 0.00 0.00 0.00 86 1015.3
20260506091009 20 249 6.4 11.3 0.00 0.00 0.00 86 1015.2
20260506090505 20 244 8.0 11.3 0.00 0.00 0.00 86 1015.2
20260506090031 20 239 8.0 12.9 0.00 0.00 0.00 86 1015.2
20260506085508 20 234 9.7 12.9 0.00 0.00 0.00 86 1015.3
20260506085008 20 238 8.0 14.5 0.00 0.00 0.00 85 1015.4
20260506084523 20 243 9.7 14.5 0.00 0.00 0.00 85 1015.4
20260506084009 20 237 9.7 14.5 0.00 0.00 0.00 85 1015.2
20260506083509 20 230 11.3 14.5 0.00 0.00 0.00 85 1015.3
20260506083024 20 231 11.3 16.1 0.00 0.00 0.00 85 1015.3
20260506082509 20 231 11.3 16.1 0.00 0.00 0.00 85 1015.3
20260506082009 20 238 11.3 17.7 0.00 0.00 0.00 85 1015.2
20260506081526 20 228 12.9 17.7 0.00 0.00 0.00 85 1015.2
20260506081012 20 223 11.3 16.1 0.00 0.00 0.00 85 1015.2
20260506080510 20 233 11.3 14.5 0.00 0.00 0.00 85 1015.2
20260506073457 20 219 14.5 20.9 0.00 0.00 0.00 84 1015.0
20260506072958 20 224 14.5 20.9 0.00 0.00 0.00 84 1014.9
20260506072458 20 219 16.1 20.9 0.00 0.00 0.00 84 1014.9
20260506071959 20 223 14.5 20.9 0.00 0.00 0.00 84 1015.0
20260506071458 20 221 16.1 20.9 0.00 0.00 0.00 84 1015.0
20260506070957 20 220 16.1 20.9 0.00 0.00 0.00 84 1015.0
20260506070459 20 215 14.5 20.9 0.00 0.00 0.00 84 1015.0
20260506062459 20 223 16.1 20.9 0.00 0.00 0.00 83 1015.3
20260506061957 20 196 16.1 20.9 0.00 0.00 0.00 83 1015.1
20260506061457 20 208 16.1 20.9 0.00 0.00 0.00 83 1015.3
20260506060959 20 216 14.5 19.3 0.00 0.00 0.00 83 1015.2
20260506060458 20 199 14.5 19.3 0.00 0.00 0.00 82 1015.2